Find Starlink 36512

NORAD ID: 67504 Int'l Des: 2026-012 Owner: SPXS Country: US Constellation: starlink operational
LEOCIRCULAR

当前视图

正在加载3D地球...

About Starlink 36512

Starlink 36512 (NORAD 67504) is a starlink constellation satellite (v2 mini) launched Jan 18, 2026 by SPXS of US. It operates in LEO, CIRCULAR orbit with a mass of 575.00 kg.

关于 Starlink 36512

正在加载描述...

即将过境

Passes for default location (London). Set your location on the main map for personalized predictions.

高度历史

Loading altitude history...

两行轨道根数

1 67504U 26012M 26194.68158326 .00008482 00000-0 31736-3 0 9999
2 67504 43.0034 322.6075 0001308 259.3686 100.7019 15.27585235 27037
Epoch: Jul 13, 2026 • Age: 14 hours

当前状态

高度 482.4 km
远地点 / 近地点 N/A
速度 7.63 km/s
星下点 8.71°N, 61.53°W
发射日期 Jan 18, 2026
运行时间 0.4 years
类型 internet

技术详情

分类 Payload
质量 575.00 kg
干质量 530.00 kg
总质量 575.00 kg
长度 0.30 m
直径 4.10 m
跨度 29.00 m
形状 Box + pan
制造商 SPXS
平台类型 Starlink V2MO
阶段状态 In Orbit
所有者/国家 SPXS/US

Most Searched